Location: ??
(35.4824°N, 139.4679°E)
Time: 07:39:15
(UTC+00:00)

ADEOS Rocket - Pass Details

Date: 29 October 2020
Orbit: 859 x 1306 km, 98.7° (Epoch: 02 December)

Event Time Altitude Azimuth Distance (km) Brightness Sun altitude
Rises 18:04:04 0° 142° (SE) 3,444 6.2 -36.6°
Reaches altitude 10° 18:06:36 10° 134° (SE) 2,494 5.5 -36.1°
Maximum altitude 18:11:32 36° 69° (ENE) 1,343 4.1 -35.1°
Drops below altitude 10° 18:16:33 10° 5° (N) 2,544 5.3 -34.1°
Sets 18:19:09 0° 357° (N) 3,522 6.0 -33.6°
